GW1851 Weather Reports


Display with metric or nautical units.
time (UTC)temp
F
wind
direction
speed
MPH
gust
MPH
rain 1hr
in
rain 24hr
in
rain mn
in
humidity
%
barometer
mb
20260510102219 49 230 1.0 1.0 0.00 0.00 0.00 61 1016.9
20260510101717 49 229 0.0 1.0 0.00 0.00 0.00 61 1017.0
20260510101215 50 222 1.0 1.0 0.00 0.00 0.00 61 1016.6
20260510100710 49 245 0.0 1.0 0.00 0.00 0.00 62 1016.6
20260510100209 50 219 0.0 0.0 0.00 0.00 0.00 63 1016.7
20260510095704 50 225 0.0 0.0 0.00 0.00 0.00 63 1016.5
20260510095159 50 225 0.0 0.0 0.00 0.00 0.00 61 1016.3
20260510094657 50 221 0.0 0.0 0.00 0.00 0.00 62 1016.1
20260510094154 51 225 0.0 0.0 0.00 0.00 0.00 61 1016.1
20260510093650 50 225 0.0 0.0 0.00 0.00 0.00 61 1015.9
20260510093148 50 244 0.0 0.0 0.00 0.00 0.00 61 1016.0
20260510092644 51 224 0.0 0.0 0.00 0.00 0.00 61 1015.8
20260510092139 51 224 0.0 1.0 0.00 0.00 0.00 59 1015.9
20260510091635 52 224 0.0 0.0 0.00 0.00 0.00 61 1015.7
20260510091131 52 223 0.0 0.0 0.00 0.00 0.00 58 1015.5
20260510090629 52 223 0.0 0.0 0.00 0.00 0.00 58 1015.5
20260510090125 52 229 0.0 1.0 0.00 0.00 0.00 60 1015.3
20260510085620 53 230 0.0 1.0 0.00 0.00 0.00 61 1015.3
20260510085115 53 229 0.0 0.0 0.00 0.00 0.00 56 1015.2
20260510084612 54 241 1.0 1.0 0.00 0.00 0.00 56 1015.3
20260510084109 54 225 1.0 1.0 0.00 0.00 0.00 55 1014.8
20260510083605 54 239 1.0 1.0 0.00 0.00 0.00 55 1015.3
20260510083102 54 228 1.0 1.0 0.00 0.00 0.00 54 1015.2
20260510082559 55 225 0.0 1.0 0.00 0.00 0.00 54 1015.0
20260510082054 55 238 1.0 1.0 0.00 0.00 0.00 54 1015.1
20260510081549 55 224 0.0 1.0 0.00 0.00 0.00 53 1015.0
20260510081045 55 224 0.0 0.0 0.00 0.00 0.00 53 1014.6
20260510080544 55 220 0.0 0.0 0.00 0.00 0.00 53 1015.0
20260510080042 56 242 1.0 1.0 0.00 0.00 0.00 52 1015.0
20260510075539 56 229 1.0 1.0 0.00 0.00 0.00 52 1015.2
20260510075035 56 238 1.0 1.0 0.00 0.00 0.00 52 1015.0
20260510074533 57 226 0.0 1.0 0.00 0.00 0.00 52 1015.1
20260510074028 57 238 1.0 1.0 0.00 0.00 0.00 51 1015.0
20260510073524 57 225 1.0 1.0 0.00 0.00 0.00 51 1014.8
20260510073021 57 239 1.0 1.0 0.00 0.00 0.00 51 1014.8
20260510072518 58 222 0.0 1.0 0.00 0.00 0.00 50 1014.7
20260510072014 58 227 1.0 2.0 0.00 0.00 0.00 51 1014.8
20260510071510 58 234 1.0 2.0 0.00 0.00 0.00 51 1014.7
20260510071009 59 226 0.0 0.0 0.00 0.00 0.00 53 1014.4
20260510070505 59 219 0.0 0.0 0.00 0.00 0.00 54 1014.6
20260510070001 59 219 0.0 0.0 0.00 0.00 0.00 52 1014.7
20260510065458 60 227 0.0 1.0 0.00 0.00 0.00 53 1014.8
20260510064954 60 227 0.0 0.0 0.00 0.00 0.00 52 1014.8
20260510064451 60 230 0.0 1.0 0.00 0.00 0.00 52 1014.8
20260510063948 60 230 1.0 1.0 0.00 0.00 0.00 50 1014.7
20260510063444 60 226 0.0 0.0 0.00 0.00 0.00 50 1014.7
20260510062942 60 231 1.0 1.0 0.00 0.00 0.00 52 1014.6
20260510062437 60 219 0.0 0.0 0.00 0.00 0.00 54 1014.7
20260510061932 60 219 0.0 0.0 0.00 0.00 0.00 55 1014.8
20260510061429 61 220 0.0 0.0 0.00 0.00 0.00 51 1014.4
20260510060925 61 225 0.0 0.0 0.00 0.00 0.00 52 1014.4
20260510060423 61 231 0.0 0.0 0.00 0.00 0.00 52 1014.1
20260510055919 62 225 0.0 0.0 0.00 0.00 0.00 51 1014.0
20260510055414 62 225 1.0 1.0 0.00 0.00 0.00 50 1014.0
20260510054907 62 231 0.0 0.0 0.00 0.00 0.00 51 1013.8
20260510054403 62 243 1.0 1.0 0.00 0.00 0.00 49 1013.5
20260510053857 62 249 0.0 1.0 0.00 0.00 0.00 50 1013.7
20260510053353 62 240 1.0 1.0 0.00 0.00 0.00 50 1013.5
20260510052850 62 227 1.0 1.0 0.00 0.00 0.00 51 1013.2
20260510052346 62 232 1.0 1.0 0.00 0.00 0.00 49 1013.4
20260510051842 63 231 0.0 1.0 0.00 0.00 0.00 49 1013.3
20260510051339 63 252 1.0 1.0 0.00 0.00 0.00 47 1013.3
20260510050836 63 232 1.0 2.0 0.00 0.00 0.00 48 1013.2
20260510050332 63 222 0.0 0.0 0.00 0.00 0.00 49 1013.2
20260510045829 63 235 1.0 1.0 0.00 0.01 0.01 49 1012.9
20260510045325 63 223 0.0 1.0 0.00 0.01 0.01 49 1012.9
20260510044823 64 235 2.0 2.0 0.00 0.01 0.01 47 1012.9
20260510044319 64 232 2.0 2.0 0.00 0.01 0.01 48 1012.8
20260510043815 64 218 0.0 1.0 0.00 0.01 0.01 49 1012.9
20260510043312 64 215 1.0 2.0 0.00 0.01 0.01 49 1012.6
20260510042810 64 307 2.0 2.0 0.00 0.01 0.01 50 1012.6
20260510042306 64 252 1.0 2.0 0.00 0.01 0.01 52 1012.6
20260510041802 64 252 1.0 1.0 0.00 0.01 0.01 53 1012.5
20260510041259 64 240 1.0 1.0 0.00 0.01 0.01 53 1012.2
20260510040756 64 248 2.0 2.0 0.00 0.01 0.01 53 1012.3
20260510040248 64 246 0.0 1.0 0.00 0.01 0.01 53 1012.2
20260510035743 64 229 1.0 1.0 0.00 0.01 0.01 53 1012.2
20260510035239 64 249 2.0 3.0 0.00 0.01 0.01 53 1012.1
20260510034734 64 255 2.0 2.0 0.00 0.01 0.01 53 1011.9
20260510034232 64 223 0.0 1.0 0.00 0.01 0.01 53 1012.1
20260510033729 64 226 1.0 1.0 0.00 0.01 0.01 53 1012.1
20260510033226 64 219 1.0 1.0 0.00 0.01 0.01 52 1011.8
20260510032722 64 245 1.0 1.0 0.00 0.01 0.01 51 1011.8
20260510032218 64 231 0.0 1.0 0.00 0.01 0.01 53 1011.7
20260510031713 64 217 0.0 0.0 0.00 0.01 0.01 54 1011.8
20260510031210 64 216 1.0 1.0 0.00 0.01 0.01 52 1011.9
20260510030709 64 221 0.0 1.0 0.00 0.01 0.01 52 1011.7
20260510030207 65 303 2.0 2.0 0.00 0.01 0.01 50 1011.3
20260510025704 65 224 2.0 3.0 0.00 0.01 0.01 50 1011.4
20260510025201 65 259 2.0 3.0 0.00 0.01 0.01 51 1011.3
20260510024658 65 257 2.0 2.0 0.00 0.01 0.01 50 1011.3
20260510024155 65 234 1.0 1.0 0.00 0.01 0.01 51 1011.0
20260510023650 65 226 0.0 1.0 0.00 0.01 0.01 53 1011.0
20260510023148 65 232 1.0 1.0 0.00 0.01 0.01 52 1010.9
20260510022644 65 221 0.0 1.0 0.00 0.01 0.01 52 1010.8
20260510022138 66 221 0.0 0.0 0.00 0.01 0.01 51 1010.7
20260510021628 66 222 0.0 1.0 0.00 0.01 0.01 49 1010.3
20260510021126 66 222 0.0 0.0 0.00 0.01 0.01 51 1010.3
20260510020620 66 228 0.0 0.0 0.00 0.01 0.01 52 1010.3
20260510020116 66 217 0.0 0.0 0.00 0.01 0.01 52 1010.2
20260510015612 67 226 1.0 2.0 0.00 0.01 0.01 50 1009.8
20260510015108 67 351 1.0 2.0 0.00 0.01 0.01 52 1009.9
20260510014604 67 250 2.0 3.0 0.00 0.01 0.01 49 1009.8
20260510014101 67 232 1.0 2.0 0.00 0.01 0.01 49 1009.9
20260510013555 67 249 2.0 2.0 0.00 0.01 0.01 49 1009.8
20260510013051 67 303 4.0 6.0 0.00 0.01 0.01 49 1009.3
20260510012545 67 59 3.0 3.0 0.00 0.01 0.01 50 1009.5
20260510012042 67 218 1.0 1.0 0.00 0.01 0.01 53 1009.2
20260510011541 68 222 1.0 1.0 0.00 0.01 0.01 51 1009.5
20260510011037 68 226 0.0 1.0 0.00 0.01 0.01 51 1009.4
20260510010534 68 229 0.0 1.0 0.00 0.01 0.01 51 1009.1
20260510010032 68 241 2.0 2.0 0.00 0.01 0.01 49 1009.1
20260510005527 68 327 3.0 3.0 0.00 0.01 0.01 48 1009.2
20260510005026 69 317 2.0 2.0 0.00 0.01 0.01 48 1009.2
20260510004522 69 283 3.0 3.0 0.00 0.01 0.01 47 1009.0
20260510004020 69 227 2.0 2.0 0.00 0.01 0.01 46 1009.0
20260510003516 70 265 2.0 2.0 0.00 0.01 0.01 46 1009.0
20260510003012 70 8 5.0 6.0 0.00 0.01 0.01 45 1008.8
20260510002508 70 313 5.0 6.0 0.00 0.01 0.01 44 1008.8
20260510002005 71 270 3.0 5.0 0.00 0.01 0.01 44 1008.5
20260510001502 71 47 3.0 5.0 0.00 0.01 0.01 43 1008.4
20260510001000 73 343 5.0 9.0 0.00 0.01 0.01 40 1008.4
20260510000455 73 12 2.0 2.0 0.00 0.01 0.01 38 1008.1
20260509235952 73 245 2.0 2.0 0.00 0.01 0.01 36 1008.1
20260509235449 73 284 2.0 2.0 0.00 0.01 0.01 35 1008.2
20260509234945 73 318 3.0 3.0 0.00 0.01 0.01 38 1007.8
20260509234442 74 239 2.0 2.0 0.00 0.01 0.01 38 1007.8
20260509233940 74 238 3.0 3.0 0.00 0.01 0.01 35 1008.0
20260509233437 74 242 2.0 2.0 0.00 0.01 0.01 35 1007.7
20260509232933 75 225 1.0 1.0 0.00 0.01 0.01 37 1007.7
20260509232431 75 296 2.0 2.0 0.00 0.01 0.01 34 1007.7
20260509231926 75 230 1.0 1.0 0.00 0.01 0.01 37 1007.6
20260509231423 76 219 0.0 0.0 0.00 0.01 0.01 36 1007.4
20260509230922 76 233 0.0 1.0 0.00 0.01 0.01 35 1007.4
20260509230418 76 238 3.0 3.0 0.00 0.01 0.01 33 1007.3
20260509225914 76 235 3.0 5.0 0.00 0.01 0.01 33 1007.3
20260509225411 76 219 0.0 1.0 0.00 0.01 0.01 34 1007.2
20260509224907 76 257 4.0 6.0 0.00 0.01 0.01 32 1007.3
20260509224402 76 230 2.0 2.0 0.00 0.01 0.01 32 1007.0
20260509223900 76 239 2.0 2.0 0.00 0.01 0.01 34 1007.2
20260509223356 76 246 3.0 3.0 0.00 0.01 0.01 33 1007.0
20260509222854 77 228 1.0 2.0 0.00 0.01 0.01 36 1007.0
20260509222349 77 254 4.0 6.0 0.00 0.01 0.01 32 1007.0
20260509221844 77 219 1.0 2.0 0.00 0.01 0.01 33 1007.3
20260509221342 77 252 5.0 7.0 0.00 0.01 0.01 34 1006.9
20260509220837 77 351 2.0 5.0 0.00 0.01 0.01 33 1006.7
20260509220334 78 253 5.0 6.0 0.00 0.01 0.01 32 1007.2
20260509215829 78 245 3.0 5.0 0.00 0.01 0.01 35 1006.9
20260509215326 78 240 3.0 5.0 0.00 0.01 0.01 33 1007.0
20260509214823 78 258 4.0 5.0 0.00 0.01 0.01 35 1007.1
20260509214320 77 230 3.0 5.0 0.00 0.01 0.01 35 1006.8
20260509213817 77 220 2.0 2.0 0.00 0.01 0.01 34 1007.0
20260509213312 77 339 1.0 2.0 0.00 0.01 0.01 35 1007.2
20260509212810 77 247 4.0 6.0 0.00 0.01 0.01 34 1007.1
20260509212308 78 140 3.0 5.0 0.00 0.01 0.01 35 1006.9
20260509211803 78 233 3.0 5.0 0.00 0.01 0.01 36 1007.1
20260509211259 77 218 2.0 3.0 0.00 0.01 0.01 36 1007.2
20260509210756 77 243 6.0 8.0 0.00 0.01 0.01 33 1007.3
20260509210254 77 229 2.0 2.0 0.00 0.01 0.01 35 1007.3
20260509205753 78 225 1.0 2.0 0.00 0.01 0.01 36 1007.3
20260509205248 77 251 2.0 5.0 0.00 0.01 0.01 33 1007.2
20260509204744 78 271 2.0 5.0 0.00 0.01 0.01 35 1007.0
20260509204241 78 235 1.0 1.0 0.00 0.01 0.01 39 1007.5
20260509203737 78 221 3.0 5.0 0.00 0.01 0.01 36 1007.3
20260509203235 78 219 4.0 6.0 0.00 0.01 0.01 36 1007.3
20260509202730 77 250 3.0 3.0 0.00 0.01 0.01 37 1007.5
20260509202226 77 249 2.0 5.0 0.00 0.01 0.01 38 1007.5
20260509201721 78 267 8.0 13.0 0.00 0.01 0.01 34 1007.6
20260509201218 78 265 4.0 6.0 0.00 0.01 0.01 36 1007.4
20260509200715 77 340 5.0 7.0 0.00 0.01 0.01 34 1007.6
20260509200209 78 239 3.0 3.0 0.00 0.01 0.01 37 1007.5
20260509195705 77 241 5.0 7.0 0.00 0.01 0.01 32 1007.5
20260509195200 77 235 3.0 5.0 0.00 0.01 0.01 35 1007.6
20260509194655 77 249 6.0 7.0 0.00 0.01 0.01 35 1007.6
20260509194152 77 205 2.0 3.0 0.00 0.01 0.01 36 1007.5
20260509193648 77 257 6.0 9.0 0.00 0.01 0.01 38 1007.5
20260509193144 77 242 3.0 3.0 0.00 0.01 0.01 45 1007.5
20260509192640 76 229 5.0 6.0 0.00 0.01 0.01 49 1007.5
20260509192135 76 228 2.0 3.0 0.00 0.01 0.01 49 1007.3
20260509191629 77 218 5.0 6.0 0.00 0.01 0.01 45 1007.4
20260509191127 77 227 2.0 2.0 0.00 0.01 0.01 48 1007.6
20260509190623 76 248 2.0 2.0 0.00 0.01 0.01 48 1007.6
20260509190120 76 217 2.0 2.0 0.00 0.01 0.01 50 1007.5
20260509185618 76 199 3.0 6.0 0.00 0.01 0.01 49 1007.5
20260509185114 76 196 2.0 3.0 0.00 0.01 0.01 49 1007.4
20260509184612 77 231 3.0 3.0 0.00 0.01 0.01 50 1007.5
20260509184109 76 230 3.0 5.0 0.00 0.01 0.01 51 1007.7
20260509183604 75 234 2.0 3.0 0.00 0.01 0.01 50 1007.6
20260509183100 75 224 3.0 3.0 0.00 0.01 0.01 50 1007.9
20260509182556 76 242 2.0 3.0 0.00 0.01 0.01 52 1007.8
20260509182053 75 227 2.0 2.0 0.00 0.01 0.01 54 1007.7
20260509181552 74 236 2.0 2.0 0.00 0.01 0.01 54 1007.8
20260509181049 75 245 4.0 5.0 0.00 0.01 0.01 54 1007.9
20260509180544 75 254 1.0 5.0 0.00 0.01 0.01 54 1007.6
20260509180042 74 209 1.0 2.0 0.00 0.01 0.01 56 1007.5
20260509175537 73 219 1.0 1.0 0.00 0.01 0.01 56 1007.8
20260509175035 74 235 6.0 8.0 0.00 0.01 0.01 56 1007.6
20260509174531 74 236 2.0 2.0 0.00 0.01 0.01 64 1007.5
20260509174026 74 168 3.0 3.0 0.00 0.01 0.01 58 1007.5
20260509173520 73 237 3.0 3.0 0.00 0.01 0.01 61 1007.7
20260509173011 73 224 1.0 1.0 0.00 0.01 0.01 63 1007.6
20260509172508 73 192 3.0 3.0 0.00 0.01 0.01 61 1007.5
20260509172004 73 228 3.0 3.0 0.00 0.01 0.01 64 1007.7
20260509171500 73 225 2.0 2.0 0.00 0.01 0.01 65 1007.7
20260509170957 72 173 0.0 0.0 0.00 0.01 0.01 67 1007.7
20260509170452 71 217 1.0 2.0 0.00 0.01 0.01 67 1007.8
20260509165948 71 217 2.0 3.0 0.00 0.01 0.01 68 1007.6
20260509165447 71 241 0.0 1.0 0.00 0.01 0.01 69 1007.7
20260509164944 70 83 3.0 6.0 0.00 0.01 0.01 67 1007.7
20260509164439 71 223 3.0 6.0 0.00 0.01 0.01 66 1007.6
20260509163935 70 240 2.0 2.0 0.00 0.01 0.01 72 1007.6
20260509163433 69 227 3.0 3.0 0.00 0.01 0.01 70 1007.4
20260509162932 69 248 4.0 5.0 0.00 0.01 0.01 71 1007.5
20260509162431 69 231 3.0 3.0 0.00 0.01 0.01 71 1007.4
20260509161926 68 236 2.0 3.0 0.00 0.01 0.01 73 1007.3
20260509161423 67 205 2.0 2.0 0.00 0.01 0.01 74 1007.2
20260509160918 67 231 3.0 3.0 0.00 0.01 0.01 75 1007.4
20260509160415 67 256 3.0 5.0 0.00 0.01 0.01 75 1007.5
20260509155910 67 251 3.0 3.0 0.00 0.01 0.01 78 1007.6
20260509155407 66 217 1.0 1.0 0.00 0.01 0.01 79 1007.4
20260509154903 65 253 2.0 2.0 0.00 0.01 0.01 81 1007.5
20260509154359 66 167 2.0 3.0 0.00 0.01 0.01 80 1007.5
20260509153856 65 249 3.0 3.0 0.00 0.01 0.01 78 1007.5
20260509153354 66 219 1.0 2.0 0.00 0.01 0.01 79 1007.4
20260509152850 64 238 4.0 6.0 0.00 0.01 0.01 80 1007.6
20260509152346 63 212 2.0 2.0 0.00 0.01 0.01 82 1007.6
20260509151844 64 189 1.0 2.0 0.00 0.01 0.01 82 1007.5
20260509151339 63 230 2.0 2.0 0.00 0.01 0.01 83 1007.6
20260509150838 63 257 5.0 6.0 0.00 0.01 0.01 83 1007.5
20260509150335 64 270 3.0 3.0 0.00 0.01 0.01 82 1007.3
20260509145832 63 255 1.0 2.0 0.00 0.01 0.01 84 1007.5
20260509145327 62 235 3.0 5.0 0.00 0.01 0.01 84 1007.5
20260509144824 61 247 3.0 5.0 0.00 0.01 0.01 85 1007.4
20260509144321 61 220 1.0 1.0 0.00 0.01 0.01 85 1007.6
20260509143818 61 248 3.0 5.0 0.00 0.01 0.01 86 1007.5
20260509143316 61 254 3.0 6.0 0.00 0.01 0.01 86 1007.7
20260509142811 61 235 2.0 2.0 0.00 0.01 0.01 86 1007.6
20260509142308 61 209 1.0 1.0 0.00 0.01 0.01 88 1007.5
20260509141803 60 253 3.0 6.0 0.00 0.01 0.01 88 1007.6
20260509141300 60 214 1.0 2.0 0.00 0.01 0.01 88 1007.7
20260509140757 60 236 3.0 5.0 0.00 0.01 0.01 87 1007.4
20260509140254 59 232 2.0 3.0 0.00 0.01 0.01 89 1007.4
20260509135752 59 249 3.0 5.0 0.00 0.01 0.01 89 1007.3
20260509135249 60 230 3.0 3.0 0.00 0.01 0.01 90 1007.3
20260509134746 59 230 2.0 2.0 0.00 0.01 0.01 91 1007.2
20260509134244 58 248 1.0 2.0 0.00 0.01 0.01 92 1007.1
20260509133741 58 196 1.0 1.0 0.00 0.01 0.01 93 1007.2
20260509133237 57 252 3.0 5.0 0.00 0.01 0.01 95 1007.2
20260509132736 56 222 3.0 3.0 0.00 0.01 0.01 97 1007.3
20260509132235 56 207 2.0 2.0 0.00 0.01 0.01 99 1007.3
20260509131730 55 231 2.0 2.0 0.00 0.01 0.01 99 1007.2
20260509131227 55 254 2.0 2.0 0.00 0.01 0.01 99 1007.1
20260509130723 55 231 1.0 1.0 0.00 0.01 0.01 99 1007.1
20260509130219 55 219 1.0 1.0 0.00 0.01 0.01 99 1007.1
20260509125716 54 209 0.0 1.0 0.00 0.01 0.01 99 1007.2
20260509125213 54 219 1.0 1.0 0.00 0.01 0.01 99 1007.1
20260509124709 54 211 1.0 1.0 0.00 0.01 0.01 99 1007.0
20260509124206 53 211 0.0 1.0 0.00 0.01 0.01 99 1007.3
20260509123704 53 233 1.0 1.0 0.00 0.01 0.01 99 1007.1
20260509123201 53 211 0.0 0.0 0.00 0.01 0.01 99 1007.3
20260509122656 53 214 0.0 0.0 0.00 0.01 0.01 99 1007.4
20260509122154 53 213 0.0 0.0 0.00 0.01 0.01 99 1007.1
20260509121650 53 212 0.0 0.0 0.00 0.01 0.01 99 1007.5
20260509121148 53 216 0.0 0.0 0.00 0.01 0.01 99 1007.4
20260509120646 53 214 0.0 0.0 0.00 0.01 0.01 99 1007.3
20260509120144 52 210 0.0 0.0 0.00 0.01 0.01 99 1007.3
20260509115641 52 217 0.0 0.0 0.00 0.01 0.01 99 1007.2
20260509115138 52 216 0.0 0.0 0.00 0.01 0.01 99 1007.2
20260509114637 51 217 0.0 0.0 0.00 0.01 0.01 99 1007.0
20260509114135 51 213 0.0 0.0 0.00 0.01 0.01 99 1006.8
20260509113633 51 212 0.0 0.0 0.00 0.01 0.01 99 1006.8
20260509113124 51 217 0.0 0.0 0.00 0.01 0.01 99 1006.8
20260509112621 51 211 0.0 0.0 0.00 0.01 0.01 99 1006.5
20260509112118 51 210 0.0 0.0 0.00 0.01 0.01 99 1007.0
20260509111615 51 215 0.0 0.0 0.00 0.01 0.01 99 1007.0
20260509111112 51 212 0.0 0.0 0.00 0.01 0.01 99 1006.9
20260509110609 51 213 0.0 0.0 0.00 0.01 0.01 99 1006.6
20260509110106 51 208 0.0 0.0 0.00 0.01 0.01 99 1006.7
20260509105604 51 206 0.0 0.0 0.00 0.01 0.01 99 1006.7
20260509105101 51 215 0.0 0.0 0.00 0.01 0.01 99 1006.6
20260509104558 51 211 0.0 0.0 0.00 0.01 0.01 99 1006.5
20260509104055 51 216 0.0 0.0 0.00 0.01 0.01 99 1006.5
20260509103553 51 193 0.0 0.0 0.00 0.01 0.01 99 1006.8
20260509103051 50 215 0.0 0.0 0.00 0.01 0.01 99 1006.8
20260509102548 50 213 0.0 0.0 0.00 0.01 0.01 99 1006.9